Location: Domont
(49.0278°N, 2.3264°E)
Time: 03:31:35
(UTC+00:00)

H-2A R/B - Pass Details

Date: 31 May 2022
Orbit: 576 x 652 km, 98.5° (Epoch: 04 July)

Event Time Altitude Azimuth Distance (km) Brightness Sun altitude
Rises 20:21:36 0° 12° (NNE) 2,803 5.9 -5.4°
Reaches altitude 10° 20:23:45 10° 10° (N) 1,902 5.1 -5.6°
Maximum altitude 20:27:50 70° 288° (WNW) 622 2.3 -6.1°
Drops below altitude 10° 20:31:57 10° 204° (SSW) 1,908 4.4 -6.6°
Sets 20:34:07 0° 202° (SSW) 2,813 5.2 -6.8°
